EW6946 Weather Reports


Display with metric or nautical units.
time (UTC)temp
F
wind
direction
speed
MPH
gust
MPH
rain 1hr
in
rain 24hr
in
rain mn
in
humidity
%
barometer
mb
20260504034554 52 261 3.0 0.0 0.00 0.00 0.00 57 1006.8
20260504033053 52 263 3.0 0.0 0.00 0.00 0.00 57 1006.8
20260504031558 52 252 8.0 0.0 0.00 0.00 0.00 56 1006.9
20260504030052 52 277 6.0 0.0 0.00 0.00 0.00 54 1006.9
20260504024551 53 233 4.0 0.0 0.00 0.00 0.00 50 1006.9
20260504023059 53 241 5.0 0.0 0.00 0.00 0.00 48 1007.2
20260504021552 53 226 3.0 0.0 0.00 0.00 0.00 46 1007.3
20260504020049 54 223 2.0 0.0 0.00 0.00 0.00 44 1007.2
20260504014600 54 255 2.0 0.0 0.00 0.00 0.00 43 1007.0
20260504013048 54 246 3.0 0.0 0.00 0.00 0.00 43 1007.1
20260504011548 54 283 3.0 0.0 0.00 0.00 0.00 43 1007.1
20260504010052 54 271 5.0 0.0 0.00 0.00 0.00 42 1007.0
20260504004551 55 242 5.0 0.0 0.00 0.00 0.00 39 1006.8
20260504003055 55 242 4.0 0.0 0.00 0.00 0.00 37 1006.7
20260504001602 56 273 4.0 0.0 0.00 0.00 0.00 36 1006.6
20260504000047 57 254 6.0 0.0 0.00 0.00 0.00 35 1006.5
20260503234545 57 267 5.0 0.0 0.00 0.00 0.00 33 1006.5
20260503233045 58 251 4.0 0.0 0.00 0.00 0.00 31 1006.4
20260503231544 58 257 5.0 0.0 0.00 0.00 0.00 29 1006.4
20260503230043 58 296 4.0 0.0 0.00 0.00 0.00 28 1006.4
20260503224545 59 273 4.0 0.0 0.00 0.00 0.00 28 1006.4
20260503223043 59 285 5.0 0.0 0.00 0.00 0.00 27 1006.4
20260503221551 59 304 5.0 0.0 0.00 0.00 0.00 26 1006.6
20260503220040 60 259 6.0 0.0 0.00 0.00 0.00 26 1006.7
20260503214539 60 278 6.0 0.0 0.00 0.00 0.00 26 1006.6
20260503213039 60 254 3.0 0.0 0.00 0.00 0.00 27 1006.7
20260503211538 60 238 6.0 0.0 0.00 0.00 0.00 26 1006.8
20260503210035 60 271 4.0 0.0 0.00 0.00 0.00 26 1006.8
20260503204539 59 275 6.0 0.0 0.00 0.00 0.00 27 1006.9
20260503203034 59 256 7.0 0.0 0.00 0.00 0.00 26 1007.1
20260503201532 59 219 4.0 0.0 0.00 0.00 0.00 27 1007.2
20260503200029 59 271 3.0 0.0 0.00 0.00 0.00 27 1007.4
20260503194531 60 246 5.0 0.0 0.00 0.00 0.00 27 1007.7
20260503193037 59 244 6.0 0.0 0.00 0.00 0.00 28 1008.0
20260503191522 59 301 4.0 0.0 0.00 0.00 0.00 30 1008.1
20260503190024 58 221 5.0 0.0 0.00 0.00 0.00 30 1008.3
20260503184524 59 277 5.0 0.0 0.00 0.00 0.00 30 1008.4
20260503183016 59 298 5.0 0.0 0.00 0.00 0.00 29 1008.7
20260503181517 59 309 7.0 0.0 0.00 0.00 0.00 29 1009.0
20260503180017 58 260 7.0 0.0 0.00 0.00 0.00 31 1009.1
20260503174508 56 292 6.0 0.0 0.00 0.00 0.00 31 1009.2
20260503173016 55 269 6.0 0.0 0.00 0.00 0.00 33 1009.6
20260503171507 55 240 5.0 0.0 0.00 0.00 0.00 32 1009.8
20260503081523 40 336 0.0 0.0 0.00 0.00 0.00 66 1012.6
20260503071518 40 340 1.0 0.0 0.00 0.00 0.00 66 1012.6
20260503054508 42 340 1.0 0.0 0.00 0.00 0.00 64 1012.9
20260503053009 42 297 1.0 0.0 0.00 0.00 0.00 62 1012.9
20260503051504 42 297 1.0 0.0 0.00 0.00 0.00 61 1013.0
20260503050002 43 302 1.0 0.0 0.00 0.00 0.00 60 1013.1
20260503044602 43 284 2.0 0.0 0.00 0.00 0.00 59 1013.1
20260503043059 43 271 2.0 0.0 0.00 0.00 0.00 59 1013.2
20260503041558 43 270 2.0 0.0 0.00 0.00 0.00 58 1013.3
20260503040054 44 277 3.0 0.0 0.00 0.00 0.00 58 1013.3